Stündliche Wetter Berlin

Heute, 11 April, Sonntag

Zeit Temperatur Niederschläge Wind Luftdruck Luftfeuchtigkeit
00:00 +5°C° 0.4 mm 4 m/S 756 mmHg 93%
01:00 +5°C° 0 mm 4 m/S 756 mmHg 93%
02:00 +5°C° 0.6 mm 4 m/S 756 mmHg 94%
03:00 +5°C° 0.6 mm 4 m/S 755 mmHg 95%
04:00 +5°C° 0.6 mm 4 m/S 755 mmHg 95%
05:00 +6°C° 0.2 mm 4 m/S 754 mmHg 94%
06:00 +6°C° 0.2 mm 4 m/S 754 mmHg 93%
07:00 +6°C° 0 mm 4 m/S 754 mmHg 92%
08:00 +9°C° 0 mm 3 m/S 754 mmHg 86%
09:00 +11°C° 0 mm 3 m/S 754 mmHg 81%
10:00 +12°C° 0 mm 3 m/S 754 mmHg 75%
11:00 +14°C° 0 mm 3 m/S 753 mmHg 68%
12:00 +17°C° 0 mm 3 m/S 753 mmHg 60%
13:00 +19°C° 0 mm 4 m/S 753 mmHg 55%
14:00 +19°C° 0.6 mm 4 m/S 753 mmHg 59%
15:00 +18°C° 0.6 mm 3 m/S 753 mmHg 63%
16:00 +18°C° 0.6 mm 3 m/S 752 mmHg 67%
17:00 +16°C° 0.7 mm 3 m/S 753 mmHg 74%
18:00 +13°C° 0.7 mm 3 m/S 753 mmHg 82%
19:00 +12°C° 0.7 mm 3 m/S 753 mmHg 89%
20:00 +10°C° 0.1 mm 4 m/S 754 mmHg 89%
21:00 +8°C° 0.1 mm 4 m/S 755 mmHg 89%
22:00 +6°C° 0.1 mm 5 m/S 756 mmHg 89%
23:00 +5°C° 0.5 mm 5 m/S 756 mmHg 90%

Morgen, 12 April, Montag

Zeit Temperatur Niederschläge Wind Luftdruck Luftfeuchtigkeit
00:00 +3°C° 0.5 mm 5 m/S 757 mmHg 91%
01:00 +2°C° 0.5 mm 5 m/S 758 mmHg 91%
02:00 +2°C° 0.1 mm 5 m/S 759 mmHg 90%
03:00 +3°C° 0.1 mm 4 m/S 759 mmHg 88%
04:00 +1°C° 0.1 mm 4 m/S 760 mmHg 87%
05:00 +1°C° 0 mm 4 m/S 760 mmHg 85%
06:00 +1°C° 0 mm 4 m/S 761 mmHg 83%
07:00 +1°C° 0 mm 4 m/S 762 mmHg 81%
08:00 +3°C° 0 mm 4 m/S 762 mmHg 73%
09:00 +4°C° 0 mm 4 m/S 762 mmHg 65%
10:00 +5°C° 0 mm 4 m/S 763 mmHg 57%
11:00 +6°C° 0 mm 4 m/S 763 mmHg 52%
12:00 +6°C° 0 mm 4 m/S 763 mmHg 47%
13:00 +7°C° 0 mm 4 m/S 764 mmHg 43%
14:00 +7°C° 0 mm 4 m/S 764 mmHg 44%
15:00 +7°C° 0 mm 4 m/S 764 mmHg 44%
16:00 +8°C° 0 mm 3 m/S 764 mmHg 44%
17:00 +7°C° 0 mm 3 m/S 764 mmHg 48%
18:00 +6°C° 0 mm 2 m/S 764 mmHg 51%
19:00 +6°C° 0 mm 2 m/S 765 mmHg 55%
20:00 +5°C° 0 mm 2 m/S 765 mmHg 58%
21:00 +4°C° 0 mm 2 m/S 765 mmHg 60%
22:00 +4°C° 0 mm 2 m/S 765 mmHg 63%
23:00 +3°C° 0 mm 2 m/S 766 mmHg 67%

übermorgen, 13 April, Dienstag

Zeit Temperatur Niederschläge Wind Luftdruck Luftfeuchtigkeit
00:00 +3°C° 0 mm 2 m/S 766 mmHg 71%
01:00 +2°C° 0 mm 2 m/S 766 mmHg 74%
02:00 +2°C° 0 mm 2 m/S 766 mmHg 76%
03:00 +1°C° 0 mm 2 m/S 766 mmHg 79%
04:00 +1°C° 0 mm 2 m/S 767 mmHg 81%
05:00 +1°C° 0 mm 2 m/S 767 mmHg 78%
06:00 +1°C° 0 mm 3 m/S 767 mmHg 76%
07:00 +1°C° 0 mm 3 m/S 767 mmHg 73%
08:00 +3°C° 0 mm 4 m/S 767 mmHg 66%
09:00 +5°C° 0 mm 4 m/S 768 mmHg 59%
10:00 +6°C° 0 mm 4 m/S 768 mmHg 53%
11:00 +7°C° 0 mm 4 m/S 767 mmHg 47%
12:00 +8°C° 0 mm 5 m/S 767 mmHg 42%
13:00 +9°C° 0 mm 5 m/S 767 mmHg 37%
14:00 +9°C° 0 mm 5 m/S 767 mmHg 38%
15:00 +8°C° 0 mm 5 m/S 767 mmHg 40%
16:00 +8°C° 0 mm 5 m/S 767 mmHg 41%
17:00 +7°C° 0.1 mm 4 m/S 767 mmHg 50%
18:00 +7°C° 0.1 mm 3 m/S 767 mmHg 58%
19:00 +4°C° 0.1 mm 3 m/S 767 mmHg 67%
20:00 +4°C° 0 mm 3 m/S 768 mmHg 71%
21:00 +4°C° 0 mm 2 m/S 768 mmHg 74%
22:00 +3°C° 0 mm 2 m/S 768 mmHg 78%
23:00 +3°C° 0 mm 2 m/S 768 mmHg 80%

14 April, Mittwoch

Zeit Temperatur Niederschläge Wind Luftdruck Luftfeuchtigkeit
00:00 +2°C° 0 mm 2 m/S 768 mmHg 82%
01:00 +1°C° 0 mm 2 m/S 768 mmHg 85%
02:00 +1°C° 0 mm 2 m/S 768 mmHg 86%
03:00 +1°C° 0 mm 2 m/S 768 mmHg 88%
04:00 -1°C° 0 mm 3 m/S 768 mmHg 89%
05:00 0°C° 0 mm 3 m/S 768 mmHg 86%
06:00 0°C° 0 mm 3 m/S 768 mmHg 83%
07:00 +1°C° 0 mm 3 m/S 768 mmHg 80%
08:00 +2°C° 0 mm 3 m/S 768 mmHg 71%
09:00 +4°C° 0 mm 4 m/S 768 mmHg 62%
10:00 +5°C° 0 mm 4 m/S 768 mmHg 52%
11:00 +6°C° 0 mm 4 m/S 767 mmHg 50%
12:00 +7°C° 0 mm 4 m/S 767 mmHg 47%
13:00 +7°C° 0 mm 4 m/S 767 mmHg 44%
14:00 +7°C° 0 mm 4 m/S 766 mmHg 46%
15:00 +7°C° 0 mm 4 m/S 766 mmHg 47%
16:00 +7°C° 0 mm 4 m/S 766 mmHg 48%
17:00 +7°C° 0.1 mm 3 m/S 766 mmHg 56%
18:00 +5°C° 0.1 mm 3 m/S 766 mmHg 64%
19:00 +4°C° 0.1 mm 3 m/S 767 mmHg 73%
20:00 +4°C° 0 mm 3 m/S 767 mmHg 74%
21:00 +3°C° 0 mm 3 m/S 767 mmHg 75%
22:00 +2°C° 0 mm 3 m/S 767 mmHg 77%
23:00 +2°C° 0 mm 3 m/S 767 mmHg 77%

15 April, Donnerstag

Zeit Temperatur Niederschläge Wind Luftdruck Luftfeuchtigkeit
00:00 +1°C° 0 mm 3 m/S 767 mmHg 76%
01:00 +1°C° 0 mm 3 m/S 767 mmHg 76%
02:00 +1°C° 0 mm 3 m/S 767 mmHg 76%
03:00 +1°C° 0 mm 3 m/S 767 mmHg 76%
04:00 +1°C° 0 mm 3 m/S 767 mmHg 75%
05:00 0°C° 0 mm 4 m/S 768 mmHg 73%
06:00 +1°C° 0 mm 4 m/S 768 mmHg 70%
07:00 +1°C° 0 mm 4 m/S 768 mmHg 67%
08:00 +3°C° 0 mm 4 m/S 768 mmHg 61%
09:00 +3°C° 0 mm 5 m/S 768 mmHg 55%
10:00 +5°C° 0 mm 5 m/S 768 mmHg 48%
11:00 +6°C° 0 mm 5 m/S 768 mmHg 46%
12:00 +6°C° 0 mm 5 m/S 767 mmHg 44%
13:00 +7°C° 0 mm 5 m/S 767 mmHg 42%
14:00 +7°C° 0 mm 5 m/S 767 mmHg 44%
15:00 +7°C° 0 mm 5 m/S 767 mmHg 46%
16:00 +7°C° 0 mm 5 m/S 767 mmHg 48%
17:00 +6°C° 0 mm 5 m/S 767 mmHg 52%
18:00 +5°C° 0 mm 5 m/S 767 mmHg 57%
19:00 +5°C° 0 mm 5 m/S 767 mmHg 61%
20:00 +3°C° 0 mm 5 m/S 767 mmHg 65%
21:00 +3°C° 0 mm 5 m/S 767 mmHg 68%
22:00 +3°C° 0 mm 4 m/S 768 mmHg 72%
23:00 +3°C° 0 mm 4 m/S 767 mmHg 75%

16 April, Freitag

Zeit Temperatur Niederschläge Wind Luftdruck Luftfeuchtigkeit
00:00 +1°C° 0 mm 4 m/S 767 mmHg 78%
01:00 +1°C° 0 mm 4 m/S 767 mmHg 82%
02:00 +2°C° 0 mm 3 m/S 767 mmHg 83%
03:00 +1°C° 0 mm 3 m/S 767 mmHg 85%
04:00 +1°C° 0 mm 3 m/S 767 mmHg 86%
05:00 +2°C° 0 mm 3 m/S 768 mmHg 85%
06:00 +1°C° 0 mm 4 m/S 768 mmHg 83%
07:00 +1°C° 0 mm 4 m/S 768 mmHg 82%
08:00 +4°C° 0 mm 4 m/S 768 mmHg 72%
09:00 +6°C° 0 mm 4 m/S 768 mmHg 63%
10:00 +8°C° 0 mm 4 m/S 768 mmHg 53%
11:00 +10°C° 0 mm 4 m/S 767 mmHg 49%
12:00 +11°C° 0 mm 4 m/S 767 mmHg 45%
13:00 +12°C° 0 mm 4 m/S 767 mmHg 41%
14:00 +10°C° 0 mm 5 m/S 767 mmHg 44%
15:00 +10°C° 0 mm 5 m/S 767 mmHg 47%
16:00 +10°C° 0 mm 5 m/S 767 mmHg 50%
17:00 +10°C° 0 mm 4 m/S 767 mmHg 56%
18:00 +8°C° 0 mm 4 m/S 767 mmHg 63%
19:00 +7°C° 0 mm 4 m/S 767 mmHg 69%
20:00 +6°C° 0 mm 4 m/S 767 mmHg 72%
21:00 +7°C° 0 mm 3 m/S 768 mmHg 76%
22:00 +5°C° 0 mm 3 m/S 768 mmHg 79%
23:00 +5°C° 0 mm 3 m/S 768 mmHg 81%
Mehr zeigen

Wir brauchen deine Erlaubnis

Meteoprog und unser Service Anbieter werden persönliche Daten aufbewahren, so wie Cookies, Geräte Bezeichnung oder ähnliche Technologien von deinem Gerät und Prozess, so wie Persönliche Daten Inhalte und Werbungen, genauso wie social Media und den Verkehr zu analysieren.

  • Aufbewahrung und/oder Zugang zu deiner Geräte Informationen.

    Cookies, Geräte Bezeichnung oder andere Informationen, können aufbewahrt oder Zugang zu deinem Gerät erhalten, für den Grund, der oben angegeben wird.

  • Personalisierte Werbung und Inhalte, Messungen, Einblick in das Publikum und Produkt Entwicklung.

    Werbungen und Inhalte können personalisiert werden, basierend auf ein Profil. Mehr Daten können besser personalisierte Werbungen und Inhalte hinzufügen. Werbung und Inhalte können gezeigt und gemessen werden. Einblicke über das Publikum, welche die Werbung gesehen haben und den Inhalt, können abgeleitet werden. So wie Daten können genutzt werden, um es zu verbessern oder die Benutzer Erfahrung zu verbessern das System und die Software.

Wenn du “Ich stimme zu” klickst, erlaubst du uns, die Cookies zu benutzen die Geräte Bezeichnung, den Web oder ähnliche Technologien zu benutzen. Deine Settings, können in deinem Gerät bei deinem Browser geändert werden.

Für den bestimmten Zweck, berechtigten Interessen beruhen darauf, mehr als auf den Inhalt. Du kannst mehr darüber in unseren Privaten und Cookie Politik lesen.